Regional Weather Roundup
Issued by NWS

Home | Current Version | Previous Version | Text Only | Print | Product List | Glossary On
Versions: 1 2 3 4 5 6 7 8 9 10 11 12 13 14 15 16 17 18 19 20 21 22 23 24 25 26 27
000
ASUS45 KBOU 232307
RWRCO

WEATHER ROUNDUP FOR COLORADO
NATIONAL WEATHER SERVICE DENVER/BOULDER CO
500 PM MDT MON OCT 23 2017

NOTE: "FAIR" INDICATES FEW OR NO CLOUDS BELOW 12000 FEET WITH NO
SIGNIFICANT WEATHER AND/OR OBSTRUCTIONS TO VISIBILITY.

COZ001>005-013-030-031-240000-
...NORTHWEST COLORADO...

CITY           SKY/WX    TMP DP  RH WIND       PRES   REMARKS
CRAIG          FAIR      59  17  19 NW16      30.49S
HAYDEN         FAIR      55  20  25 NW15      30.51
MEEKER         FAIR      62  16  16 NW17      30.49R
RABBIT EARS PA FAIR      36  23  60 W15G22    30.59R
STEAMBOAT SPGS FAIR      54  21  27 W13       30.49R
WALDEN         NOT AVBL
$$

COZ006>008-011-240000-
...WEST CENTRAL VALLEYS...

CITY           SKY/WX    TMP DP  RH WIND       PRES   REMARKS
GRAND JUNCTION FAIR      67  31  26 N7        30.40S
MONTROSE       FAIR      65  28  24 W6        30.45F
EAGLE          FAIR      63  22  20 W10       30.47
RIFLE          FAIR      67  21  17 N10G24    30.43R
DELTA          FAIR      71  26  18 W14       30.40R
NUCLA          FAIR      70  21  16 NW13      30.46R
$$

COZ017>023-064>068-240000-
...SOUTHWEST COLORADO...

CITY           SKY/WX    TMP DP  RH WIND       PRES   REMARKS
DURANGO        FAIR      71  25  17 W10       30.35F
CORTEZ         FAIR      70  25  18 NW15G21   30.38F
PAGOSA SPRINGS FAIR      65  19  17 W6        30.44R
TELLURIDE      FAIR      55  17  22 N5        30.58S
WOLF CREEK PAS FAIR      46  23  39 SW6       30.71R
$$

COZ009-010-012-014-032>034-037-058>063-240000-
...CENTRAL COLORADO...

CITY           SKY/WX    TMP DP  RH WIND       PRES   REMARKS
ASPEN          FAIR      57  23  26 N13G22    30.49R
BUENA VISTA    FAIR      60  13  16 N20G28    30.41R
COPPER MTN     FAIR      39  18  41 NW8G30    30.63R
BERTHOUD PASS  FAIR      28  18  64 NW39G55   30.56R WCI  11
COTTONWOOD PAS FAIR      55  12  18 W24G32    30.50R
GUNNISON       FAIR      59  26  28 W15G22    30.46
KREMMLING      FAIR      59  19  21 NW13      30.51S
LEADVILLE      FAIR      46  17  31 NW22G30   30.52S
MONARCH PASS   FAIR      41  19  42 W36G45    30.71S
SALIDA         FAIR      61  28  28 E8        30.45R
SUNLIGHT       FAIR      41  21  45 W6G21     30.67S
WILKERSON PASS FAIR      43  14  31 N9G25     30.59R
$$

COZ069>075-240000-
...SAN LUIS VALLEY/SANGRE DE CRISTO MOUNTAINS...

CITY           SKY/WX    TMP DP  RH WIND       PRES   REMARKS
ALAMOSA        FAIR      67  21  17 W10       30.37F
DEL NORTE      FAIR      66  14  13 NW25G31   30.41R
LA VETA PASS   FAIR      39  32  75 NW6       30.62S
SAGUACHE       FAIR      63  21  20 NW23G32   30.40S
$$

COZ035-036-038>040-240000-
...NORTHERN COLORADO FRONT RANGE...

CITY           SKY/WX    TMP DP  RH WIND       PRES   REMARKS
DENVER INTL AP PTSUNNY   53  22  29 N3        30.43S
DMNS CITY PARK   N/A     54  24  30 W2G9      30.44S
AURORA         PTSUNNY   52  24  33 CALM      30.45R
FRONT RANGE AP MOSUNNY   54  23  30 N6        30.45R
ERIE MUNI ARPT FAIR      54  29  38 SW7       30.48S
BOULDER MUN AP FAIR      52  30  43 S6        30.43F
CENTENNIAL     FAIR      50  23  34 VRB5      30.44S
BROOMFIELD     PTSUNNY   52  30  43 SW8       30.45S
FORT COLLINS   PTSUNNY   53  32  44 SW9       30.43
LONGMONT       FAIR      55  32  42 SW8       30.45S HAZE
$$

COZ041-046-047-076>085-087-088-240000-
...PIKES PEAK/PALMER DIVIDE AND SOUTHERN FOOTHILLS...

CITY           SKY/WX    TMP DP  RH WIND       PRES   REMARKS
COLO. SPRINGS  PTSUNNY   51  28  41 E10       30.45
A. F. ACADEMY  PTSUNNY   49  28  44 NE9       30.44R
SCHRIEVER AFB  PTSUNNY   48  25  40 E7        30.45R
CHEYENNE MTN   PTSUNNY   45  31  58 CALM      30.41R
ELLICOTT         N/A    N/A N/A N/A N12       30.44R
FALCON         FAIR      47  25  42 N9        30.46S
FORT CARSON    CLOUDY    51  29  43 NE8       30.43R
LIMON          FAIR      50  22  33 N15       30.43
MONUMENT HILL  FAIR      43  23  45 NE7       30.48S
CANON CITY     FAIR      55  32  41 E8        30.41R
WALSENBURG     FAIR      54  32  43 E8        30.42R
TRINIDAD       FAIR      54  30  40 NE9       30.40
$$

COZ042>045-048>051-090-091-240000-
...NORTHEAST COLORADO...

CITY           SKY/WX    TMP DP  RH WIND       PRES   REMARKS
GREELEY ARPT   NOT AVBL
AKRON          FAIR      53  17  24 N21G32    30.39R
BURLINGTON     FAIR      56  20  24 N16G29    30.38R
WRAY           NOT AVBL
YUMA           FAIR      54  19  26 N23G32    30.36S
STERLING       FAIR      55  21  26 N30G37    30.36S
HOLYOKE        FAIR      59  18  20 N28G40    30.36R
FORT MORGAN    FAIR      55  15  20 N15G23    30.41S
$$

COZ086-089-092>099-240000-
...SOUTHEAST COLORADO...

CITY           SKY/WX    TMP DP  RH WIND       PRES   REMARKS
PUEBLO         FAIR      59  31  34 E5        30.39R
LA JUNTA       FAIR      59  26  28 N14       30.39S
LAMAR          FAIR      59  21  23 N21G29    30.37R
SPRINGFIELD      N/A     56  24  29 N14G23    30.36
$$




USA.gov is the U.S. government's official web portal to all federal, state and local government web resources and services.